Location: NJAA Observatory
(40.6819°N, 74.8979°W)
Time: 08:09:03
(UTC-04:00)

Courier 1B - All Passes

Search period start: 21 April 2014 00:00
Search period end: 01 May 2014 00:00
Orbit: 963 x 1209 km, 28.3° (Epoch: 20 April)

Date Brightness Start Highest point End Pass type
(mag) Time Alt. Az. Time Alt. Az. Time Alt. Az.
21 Apr - 11:59:08 10° S 12:01:29 12° SSE 12:03:48 10° SE daylight
21 Apr - 13:48:56 10° SW 13:54:41 24° SSE 14:00:11 10° ESE daylight
21 Apr - 15:41:55 10° WSW 15:48:02 30° S 15:53:50 10° ESE daylight
21 Apr - 17:36:04 10° WSW 17:41:15 22° SSW 17:46:14 10° SSE daylight
22 Apr - 12:55:38 10° SSW 13:01:05 21° SSE 13:06:20 10° ESE daylight
22 Apr - 14:48:11 10° SW 14:54:26 30° S 15:00:23 10° ESE daylight
22 Apr - 16:42:03 10° WSW 16:47:45 26° SSW 16:53:11 10° SE daylight
22 Apr - 18:37:52 10° SW 18:40:44 13° SSW 18:43:33 10° S daylight
23 Apr - 12:02:33 10° SSW 12:07:29 18° SSE 12:12:17 10° ESE daylight
23 Apr - 13:54:31 10° SW 14:00:48 29° S 14:06:49 10° ESE daylight
23 Apr - 15:48:07 10° WSW 15:54:11 29° S 15:59:58 10° SE daylight
23 Apr - 17:43:05 10° WSW 17:47:18 17° SSW 17:51:24 10° SSE daylight
24 Apr - 11:09:50 10° S 11:13:53 15° SSE 11:17:52 10° SE daylight
24 Apr - 13:00:56 10° SW 13:07:10 27° S 13:13:09 10° ESE daylight
24 Apr - 14:54:14 10° WSW 15:00:35 30° S 15:06:38 10° SE daylight
24 Apr - 16:48:44 10° WSW 16:53:50 21° SSW 16:58:43 10° SSE daylight
25 Apr - 10:17:54 10° S 10:20:18 12° SSE 10:22:41 10° SE daylight
25 Apr - 12:07:30 10° SW 12:13:31 25° SSE 12:19:21 10° ESE daylight
25 Apr - 14:00:26 10° WSW 14:06:57 31° S 14:13:11 10° ESE daylight
25 Apr - 15:54:35 10° WSW 16:00:18 25° SSW 16:05:46 10° SE daylight
25 Apr - 17:51:41 10° SW 17:53:16 11° SSW 17:54:50 10° SSW daylight
26 Apr - 11:14:15 10° SSW 11:19:52 22° SSE 11:25:23 10° ESE daylight
26 Apr - 13:06:42 10° SW 13:13:17 31° S 13:19:38 10° ESE daylight
26 Apr - 15:00:32 10° WSW 15:06:43 28° S 15:12:37 10° SE daylight
26 Apr - 16:56:04 10° WSW 16:59:49 15° SSW 17:03:28 10° S daylight
27 Apr - 10:21:16 10° SSW 10:26:15 18° SSE 10:31:11 10° ESE daylight
27 Apr - 12:13:03 10° SW 12:19:36 30° S 12:25:58 10° ESE daylight
27 Apr - 14:06:36 10° WSW 14:13:05 30° S 14:19:19 10° SE daylight
27 Apr - 16:01:26 10° WSW 16:06:20 19° SSW 16:11:03 10° SSE daylight
28 Apr - 09:28:42 10° S 09:32:38 15° SSE 09:36:35 10° ESE daylight
28 Apr - 11:19:32 10° SW 11:25:55 28° SSE 11:32:11 10° ESE daylight
28 Apr - 13:12:44 10° WSW 13:19:25 32° S 13:25:52 10° ESE daylight
28 Apr - 15:07:08 10° WSW 15:12:47 23° SSW 15:18:13 10° SSE daylight
29 Apr - 08:37:13 10° SSE 08:39:04 11° SSE 08:40:55 10° SE daylight
29 Apr - 10:26:11 10° SW 10:32:14 25° SSE 10:38:15 10° ESE daylight
29 Apr - 12:18:57 10° WSW 12:25:43 32° S 12:32:19 10° ESE daylight
29 Apr - 14:13:00 10° WSW 14:19:10 27° SSW 14:25:07 10° SE daylight
29 Apr - 16:09:17 10° SW 16:12:16 13° SSW 16:15:11 10° S daylight
30 Apr - 09:33:03 10° SSW 09:38:35 21° SSE 09:44:09 10° ESE daylight
30 Apr - 11:25:17 10° SW 11:32:00 32° S 11:38:38 10° ESE daylight
30 Apr - 13:19:00 10° WSW 13:25:31 30° S 13:31:51 10° SE daylight
30 Apr - 15:14:15 10° WSW 15:18:45 17° SSW 15:23:08 10° SSE daylight
